[Date Prev][Date Next][Thread Prev][Thread Next] - [Date Index][Thread Index][Author Index]

MIR Keps 1-25 - These will update 1-22 keps by 45 sec's



MIR
1 16609U 86017A   99025.16253059  .00040284  00000-0  31272-3 0  1437
2 16609  51.6610 356.3401 0009961  38.2323 321.9428 15.71322110738900

----
Via the sarex mailing list at AMSAT.ORG courtesy of AMSAT-NA.
To unsubscribe, send "unsubscribe sarex" to Majordomo@amsat.org



AMSAT Top AMSAT Home